Location: Fauquembergues
(50.6005°N, 2.0987°E)
Time: 07:09:55
(UTC+00:00)

COSMOS 2406 - Pass Details

Date: 14 July 2020
Orbit: 844 x 862 km, 71.0° (Epoch: 14 August)

Event Time Altitude Azimuth Distance (km) Brightness Sun altitude
Exits shadow 00:49:36 19° 154° (SSE) 1,949 4.6 -16.9°
Maximum altitude 00:52:47 32° 105° (ESE) 1,454 4.4 -16.7°
Drops below altitude 10° 00:57:48 10° 45° (NE) 2,510 6.6 -16.6°
Sets 01:00:29 0° 36° (NE) 3,449 7.7 -16.4°
